• In Russia
  • List of Countries
  • For 7 days
  • Water Temperature
  • Satellite Maps
  • Weather Map
  • Weather Widgets
  • user-avatar
    Login

    Hourly Weather Sydney

    Today, 27 June, Tuesday

    Time Temperature Precipitation Wind Pressure Humidity
    00:00 +9°C° 0 mm 2 mps 768 mmHg 75%
    01:00 +9°C° 0 mm 2 mps 768 mmHg 78%
    02:00 +8°C° 0 mm 2 mps 768 mmHg 81%
    03:00 +7°C° 0 mm 2 mps 768 mmHg 84%
    04:00 +6°C° 0 mm 2 mps 768 mmHg 89%
    05:00 +6°C° 0 mm 2 mps 768 mmHg 89%
    06:00 +6°C° 0 mm 2 mps 768 mmHg 90%
    07:00 +5°C° 0 mm 3 mps 768 mmHg 90%
    08:00 +8°C° 0 mm 2 mps 768 mmHg 81%
    09:00 +12°C° 0 mm 2 mps 768 mmHg 73%
    10:00 +14°C° 0 mm 2 mps 768 mmHg 64%
    11:00 +15°C° 0 mm 2 mps 768 mmHg 62%
    12:00 +16°C° 0 mm 2 mps 768 mmHg 61%
    13:00 +17°C° 0 mm 2 mps 767 mmHg 59%
    14:00 +17°C° 0 mm 2 mps 767 mmHg 63%
    15:00 +16°C° 0 mm 2 mps 767 mmHg 68%
    16:00 +16°C° 0 mm 2 mps 767 mmHg 72%
    17:00 +14°C° 0 mm 2 mps 767 mmHg 79%
    18:00 +13°C° 0 mm 2 mps 767 mmHg 86%
    19:00 +11°C° 0 mm 1 mps 767 mmHg 93%
    20:00 +10°C° 0 mm 1 mps 767 mmHg 94%
    21:00 +10°C° 0 mm 1 mps 767 mmHg 95%
    22:00 +9°C° 0 mm 1 mps 767 mmHg 96%
    23:00 +9°C° 0 mm 1 mps 767 mmHg 96%

    Tomorrow, 28 June, Wednesday

    Time Temperature Precipitation Wind Pressure Humidity
    00:00 +8°C° 0 mm 2 mps 767 mmHg 96%
    01:00 +8°C° 0 mm 2 mps 767 mmHg 96%
    02:00 +8°C° 0 mm 2 mps 767 mmHg 96%
    03:00 +8°C° 0 mm 2 mps 766 mmHg 96%
    04:00 +8°C° 0 mm 2 mps 766 mmHg 96%
    05:00 +8°C° 0 mm 2 mps 766 mmHg 96%
    06:00 +8°C° 0 mm 2 mps 766 mmHg 97%
    07:00 +9°C° 0 mm 1 mps 766 mmHg 97%
    08:00 +10°C° 0.1 mm 2 mps 766 mmHg 92%
    09:00 +12°C° 0.1 mm 2 mps 766 mmHg 88%
    10:00 +13°C° 0.1 mm 2 mps 767 mmHg 84%
    11:00 +14°C° 0.4 mm 2 mps 766 mmHg 85%
    12:00 +14°C° 0.4 mm 2 mps 765 mmHg 87%
    13:00 +14°C° 0.4 mm 1 mps 765 mmHg 89%
    14:00 +14°C° 0.2 mm 1 mps 765 mmHg 91%
    15:00 +14°C° 0.2 mm 1 mps 764 mmHg 93%
    16:00 +13°C° 0.2 mm 2 mps 764 mmHg 95%
    17:00 +12°C° 0 mm 2 mps 764 mmHg 96%
    18:00 +12°C° 0 mm 2 mps 765 mmHg 97%
    19:00 +10°C° 0 mm 2 mps 765 mmHg 97%
    20:00 +9°C° 0 mm 2 mps 765 mmHg 97%
    21:00 +9°C° 0 mm 2 mps 765 mmHg 97%
    22:00 +9°C° 0 mm 2 mps 765 mmHg 97%
    23:00 +9°C° 0 mm 3 mps 765 mmHg 96%

    Day after tomorrow, 29 June, Thursday

    Time Temperature Precipitation Wind Pressure Humidity
    00:00 +8°C° 0 mm 3 mps 765 mmHg 95%
    01:00 +8°C° 0 mm 3 mps 765 mmHg 94%
    02:00 +7°C° 0 mm 3 mps 764 mmHg 94%
    03:00 +7°C° 0 mm 3 mps 764 mmHg 94%
    04:00 +7°C° 0 mm 3 mps 764 mmHg 94%
    05:00 +7°C° 0 mm 3 mps 764 mmHg 93%
    06:00 +7°C° 0 mm 3 mps 764 mmHg 92%
    07:00 +7°C° 0 mm 3 mps 764 mmHg 91%
    08:00 +8°C° 0.1 mm 3 mps 764 mmHg 89%
    09:00 +9°C° 0.1 mm 3 mps 765 mmHg 87%
    10:00 +10°C° 0.1 mm 2 mps 765 mmHg 85%
    11:00 +12°C° 0 mm 2 mps 764 mmHg 78%
    12:00 +14°C° 0 mm 2 mps 763 mmHg 70%
    13:00 +15°C° 0 mm 2 mps 762 mmHg 63%
    14:00 +15°C° 0 mm 2 mps 762 mmHg 66%
    15:00 +15°C° 0 mm 2 mps 762 mmHg 69%
    16:00 +15°C° 0 mm 2 mps 762 mmHg 72%
    17:00 +13°C° 0 mm 2 mps 763 mmHg 78%
    18:00 +12°C° 0 mm 2 mps 763 mmHg 85%
    19:00 +9°C° 0 mm 3 mps 763 mmHg 91%
    20:00 +8°C° 0 mm 4 mps 764 mmHg 88%
    21:00 +8°C° 0 mm 4 mps 764 mmHg 84%
    22:00 +7°C° 0 mm 5 mps 764 mmHg 81%
    23:00 +7°C° 0 mm 6 mps 764 mmHg 81%

    30 June, Friday

    Time Temperature Precipitation Wind Pressure Humidity
    00:00 +7°C° 0 mm 6 mps 764 mmHg 80%
    01:00 +6°C° 0 mm 7 mps 764 mmHg 80%
    02:00 +7°C° 0 mm 6 mps 764 mmHg 81%
    03:00 +5°C° 0 mm 6 mps 764 mmHg 81%
    04:00 +5°C° 0 mm 6 mps 765 mmHg 82%
    05:00 +5°C° 0 mm 6 mps 765 mmHg 83%
    06:00 +4°C° 0 mm 7 mps 766 mmHg 84%
    07:00 +4°C° 0 mm 7 mps 767 mmHg 85%
    08:00 +6°C° 0 mm 7 mps 767 mmHg 73%
    09:00 +8°C° 0 mm 7 mps 768 mmHg 62%
    10:00 +10°C° 0 mm 7 mps 768 mmHg 50%
    11:00 +10°C° 0 mm 7 mps 768 mmHg 47%
    12:00 +11°C° 0 mm 7 mps 768 mmHg 44%
    13:00 +12°C° 0 mm 7 mps 767 mmHg 41%
    14:00 +11°C° 0 mm 7 mps 768 mmHg 44%
    15:00 +11°C° 0 mm 7 mps 768 mmHg 48%
    16:00 +10°C° 0 mm 7 mps 768 mmHg 51%
    17:00 +9°C° 0 mm 7 mps 769 mmHg 58%
    18:00 +7°C° 0 mm 6 mps 770 mmHg 64%
    19:00 +4°C° 0 mm 6 mps 770 mmHg 71%
    20:00 +4°C° 0.1 mm 6 mps 771 mmHg 69%
    21:00 +4°C° 0.1 mm 6 mps 771 mmHg 68%
    22:00 +4°C° 0.1 mm 6 mps 772 mmHg 67%
    23:00 +4°C° 0 mm 6 mps 772 mmHg 67%

    1 July, Saturday

    Time Temperature Precipitation Wind Pressure Humidity
    00:00 +4°C° 0 mm 6 mps 771 mmHg 68%
    01:00 +3°C° 0 mm 6 mps 771 mmHg 69%
    02:00 +3°C° 0 mm 6 mps 771 mmHg 71%
    03:00 +3°C° 0 mm 6 mps 771 mmHg 72%
    04:00 +2°C° 0 mm 6 mps 771 mmHg 74%
    05:00 +2°C° 0 mm 6 mps 772 mmHg 74%
    06:00 +2°C° 0 mm 5 mps 772 mmHg 75%
    07:00 +2°C° 0 mm 5 mps 772 mmHg 76%
    08:00 +5°C° 0 mm 5 mps 772 mmHg 70%
    09:00 +7°C° 0 mm 5 mps 772 mmHg 64%
    10:00 +9°C° 0 mm 5 mps 773 mmHg 59%
    11:00 +10°C° 0 mm 5 mps 772 mmHg 57%
    12:00 +13°C° 0 mm 4 mps 771 mmHg 55%
    13:00 +14°C° 0 mm 4 mps 771 mmHg 52%
    14:00 +14°C° 0 mm 4 mps 771 mmHg 57%
    15:00 +13°C° 0 mm 4 mps 770 mmHg 61%
    16:00 +12°C° 0 mm 3 mps 770 mmHg 66%
    17:00 +10°C° 0 mm 3 mps 771 mmHg 75%
    18:00 +8°C° 0 mm 3 mps 771 mmHg 84%
    19:00 +4°C° 0 mm 3 mps 771 mmHg 93%
    20:00 +6°C° 0 mm 2 mps 771 mmHg 93%
    21:00 +6°C° 0 mm 2 mps 772 mmHg 93%
    22:00 +6°C° 0 mm 2 mps 772 mmHg 93%
    23:00 +5°C° 0 mm 2 mps 771 mmHg 94%

    2 July, Sunday

    Time Temperature Precipitation Wind Pressure Humidity
    00:00 +5°C° 0 mm 2 mps 771 mmHg 95%
    01:00 +5°C° 0 mm 2 mps 771 mmHg 95%
    02:00 +4°C° 0 mm 2 mps 770 mmHg 95%
    03:00 +4°C° 0 mm 2 mps 770 mmHg 95%
    04:00 +4°C° 0 mm 2 mps 770 mmHg 95%
    05:00 +3°C° 0 mm 2 mps 770 mmHg 94%
    06:00 +3°C° 0 mm 2 mps 770 mmHg 93%
    07:00 +3°C° 0 mm 2 mps 770 mmHg 93%
    08:00 +6°C° 0 mm 2 mps 770 mmHg 80%
    09:00 +9°C° 0 mm 2 mps 770 mmHg 67%
    10:00 +13°C° 0 mm 2 mps 770 mmHg 54%
    11:00 +14°C° 0 mm 2 mps 769 mmHg 52%
    12:00 +16°C° 0 mm 2 mps 769 mmHg 50%
    13:00 +17°C° 0 mm 2 mps 768 mmHg 49%
    14:00 +16°C° 0 mm 3 mps 768 mmHg 53%
    15:00 +16°C° 0 mm 3 mps 767 mmHg 58%
    16:00 +14°C° 0 mm 3 mps 767 mmHg 63%
    17:00 +13°C° 0 mm 3 mps 767 mmHg 69%
    18:00 +11°C° 0 mm 3 mps 768 mmHg 76%
    19:00 +8°C° 0 mm 4 mps 768 mmHg 83%
    20:00 +8°C° 0 mm 4 mps 768 mmHg 83%
    21:00 +7°C° 0 mm 4 mps 768 mmHg 84%
    22:00 +6°C° 0 mm 4 mps 768 mmHg 84%
    23:00 +6°C° 0 mm 4 mps 767 mmHg 87%
    Show more